Find Starlink 31004

NORAD ID: 58528 Int'l Des: 2023-191 Owner: SPXS Country: US Constellation: starlink operational
LEOCIRCULAR

当前视图

正在加载3D地球...

About Starlink 31004

Starlink 31004 (NORAD 58528) is a starlink constellation satellite (v2 mini) launched Dec 7, 2023 by SPXS of US. It operates in LEO, CIRCULAR orbit with a mass of 730.00 kg.

即将过境

Passes for default location (London). Set your location on the main map for personalized predictions.

高度历史

Loading altitude history...

两行轨道根数

1 58528U 23191W 26257.00834594 -.00001976 00000-0 -62316-4 0 9996
2 58528 43.0028 119.7884 0001347 284.9380 75.1322 15.27569518154272
Epoch: Sep 14, 2026 • Age: 9 hours

当前状态

高度 482.7 km
远地点 / 近地点 N/A
速度 7.63 km/s
星下点 5.74°N, 166.35°E
发射日期 Dec 7, 2023
运行时间 2.7 years
类型 internet

技术详情

分类 Payload
质量 730.00 kg
干质量 700.00 kg
总质量 730.00 kg
长度 0.30 m
直径 4.10 m
跨度 29.00 m
形状 Box + pan
制造商 SPXS
平台类型 Starlink V2M
阶段状态 In Orbit
所有者/国家 SPXS/US

Most Searched